Вернуться в каталог

STARLINK-35357

АктивенСвязьSSO
NORAD 65799·PAYLOAD·🇺🇸 United States

Запущен Sep 26, 2025 с Vandenberg Space Force Base

Loading…

Ближайшие Пролёты (ближайшие 24 часа)

TLE

СвежийSource: CelesTrak SupGP

Эпоха: Sep 14, 2026, 22:31 UTC

1 65799C 25218J   26257.93868056 -.00049202  00000+0 -15273-2 0  2576
2 65799  97.2840 115.3232 0001249 104.7946   9.0979 15.33464256    16

Отслеживайте STARLINK-35357 в реальном времени с AllMySat

Download on the App Store